Regional Weather Roundup
Issued by NWS

Home | Current Version | Previous Version | Text Only | Print | Product List | Glossary Off
Versions: 1 2 3 4 5 6 7 8 9 10 11 12 13 14 15 16 17 18 19 20 21 22 23 24 25 26 27 28 29 30 31 32 33 34 35 36 37 38 39 40 41 42 43 44 45 46 47 48 49 50

775
ASUS45 KBOI 260010
RWRID

IDAHO REGIONAL WEATHER ROUNDUP
NATIONAL WEATHER SERVICE BOISE ID
600 PM MDT WED MAY 25 2016

NOTE: "FAIR" INDICATES FEW OR NO CLOUDS BELOW 12000 FEET
WITH NO SIGNIFICANT WEATHER AND/OR OBSTRUCTIONS TO VISIBILITY

IDZ012-014-260100-
SOUTHWEST IDAHO


CITY           SKY/WX    TMP DP  RH WIND       PRES   REMARKS
BOISE          PTSUNNY   65  38  36 N6        29.98F
CALDWELL       PTSUNNY   74  39  28 NW8       29.96F
MOUNTAIN HOME  MOSUNNY   72  44  36 N20G26    29.96S
$$

IDZ016-017-260100-
SOUTHCENTRAL IDAHO


CITY           SKY/WX    TMP DP  RH WIND       PRES   REMARKS
BURLEY         MOSUNNY   63  41  44 SW12      30.00S
JEROME         MOSUNNY   65  38  36 W13       30.01S
TWIN FALLS     PTSUNNY   63  39  41 W14G23    30.01S
$$

IDZ019>023-260100-
SOUTHEAST IDAHO


CITY           SKY/WX    TMP DP  RH WIND       PRES   REMARKS
IDAHO FALLS    CLOUDY    55  42  61 S17       30.02S
POCATELLO      CLOUDY    57  44  62 CALM      30.03S THUNDER
REXBURG        LGT RAIN  54  44  69 SW7       30.03R
$$

IDZ006-010-011-018-031-032-260100-
CENTRAL IDAHO MOUNTAINS


CITY           SKY/WX    TMP DP  RH WIND       PRES   REMARKS
MCCALL         MOSUNNY   58  34  40 N9G21     30.02S
HAILEY         PTSUNNY   55  43  62 SE10      30.05
STANLEY          N/A     52  35  52 VRB7      30.05S
SALMON         PTSUNNY   64  37  36 N8        29.93S
CHALLIS        MOSUNNY   63  32  31 VRB5      29.97S
$$

IDZ002-004-006-007-026-260100-
NORTHERN IDAHO


CITY           SKY/WX    TMP DP  RH WIND       PRES   REMARKS
LEWISTON       MOSUNNY   71  46  40 SW10      29.97F
LOWELL           N/A     57  53  86 CALM      30.04R
COEUR D`ALENE  PTSUNNY   72  48  43 SW12      29.94F
MULLAN PASS    LGT RAIN  47  41  80 VRB5      30.07S
$$




USA.gov is the U.S. government's official web portal to all federal, state and local government web resources and services.